Theta_e
325 321 320 325 324 324 328 326 325 325 325 326 326 326 326 326 326 326 325 327 326 325 325 325 325 325 325 327 328 328 331 334 332 331 334 335 335 336 337 336 336 336 336 337 339 340 341 342 343 341 341 341 340 340 340 340 339 339 340 340 338 337 337 336 334 332 333 333 332 328 326 329 334 338
324 322 324 327 326 326 328 326 326 327 326 325 325 326 326 325 326 325 326 327 326 324 324 324 325 325 325 328 330 329 329 329 329 329 331 332 334 335 335 333 333 334 334 335 336 337 338 341 342 342 342 342 340 340 340 340 339 338 340 340 339 338 338 338 337 335 334 334 331 325 323 323 326 330
324 320 323 328 327 327 327 326 327 328 326 326 325 325 325 325 325 326 327 327 326 324 324 324 324 325 325 326 327 326 326 326 328 329 329 329 329 331 331 330 330 330 330 330 331 333 334 336 338 341 342 342 343 342 341 340 340 339 340 340 340 340 339 339 339 338 337 337 334 329 326 323 321 321
325 320 321 327 327 326 327 327 327 328 327 326 325 324 325 325 325 326 326 326 325 324 324 324 324 324 324 324 325 325 325 325 325 327 327 327 327 327 327 327 326 327 327 327 328 329 330 332 334 336 338 340 341 343 343 342 341 341 340 340 339 339 340 340 339 339 338 337 336 334 332 329 325 322
320 319 320 324 325 324 325 325 325 326 327 326 326 325 325 325 324 325 324 324 324 324 324 324 324 324 324 324 324 324 324 324 324 324 325 325 326 326 326 326 326 325 326 327 327 327 328 330 332 334 335 336 337 338 340 342 342 342 341 340 339 339 340 340 338 338 337 336 335 336 336 334 332 329
320 320 321 322 322 322 322 322 322 323 324 325 326 325 325 325 324 324 324 323 323 323 323 323 323 323 323 323 323 323 323 323 323 323 323 324 324 324 325 325 325 325 324 324 325 326 327 328 331 333 333 335 335 334 335 339 341 343 344 342 341 341 341 339 337 336 337 335 334 335 336 336 336 335
322 320 321 323 324 324 324 324 324 323 323 324 324 324 325 325 325 324 324 324 324 323 323 323 324 324 324 324 323 323 323 323 322 322 323 322 323 323 324 324 324 324 324 322 322 324 326 326 328 332 332 334 336 334 334 335 336 338 341 341 341 341 342 341 339 338 337 336 335 335 336 337 337 337
322 320 321 324 325 325 326 326 325 324 323 323 323 323 323 324 324 324 324 324 324 324 324 324 324 325 325 325 325 324 324 324 323 323 323 322 323 323 323 323 323 322 322 321 320 320 323 325 327 330 331 332 335 334 333 333 332 331 334 334 334 335 337 339 340 339 338 338 338 337 337 338 338 338
321 321 323 325 326 326 326 326 324 322 322 321 321 321 322 322 323 323 324 324 323 324 323 324 325 325 325 325 325 325 325 325 324 324 324 324 324 324 323 323 323 323 322 321 320 318 319 322 325 328 330 331 333 333 331 332 332 332 330 329 329 330 331 334 336 338 339 341 341 340 339 339 338 338
320 322 324 326 326 326 325 324 322 321 320 320 320 322 322 323 322 323 323 324 323 323 323 324 325 325 325 325 325 325 325 325 325 325 324 325 325 325 324 324 324 323 322 322 321 318 317 319 322 324 328 330 332 332 332 331 331 332 329 327 328 328 328 329 331 334 337 339 340 341 341 341 341 340
322 323 324 325 326 324 323 323 321 321 320 319 321 324 325 325 324 323 323 323 324 323 323 324 324 325 324 324 325 325 325 325 325 324 324 325 325 325 326 326 326 325 324 324 323 320 318 320 323 324 327 330 330 331 332 332 331 331 328 326 326 325 325 325 325 327 330 332 334 336 338 339 339 339
321 323 324 323 322 322 322 322 321 321 320 319 321 326 327 325 325 325 324 324 324 324 324 324 324 324 324 324 324 324 324 324 324 324 324 325 325 325 325 326 327 327 325 325 326 325 323 324 327 328 329 330 329 329 330 331 332 332 330 327 325 325 325 325 324 323 323 325 328 330 333 334 336 336
319 322 322 321 320 321 321 321 321 321 320 320 323 327 326 326 325 325 324 325 324 324 324 324 324 324 323 323 323 324 324 324 324 324 324 325 325 325 325 325 326 326 326 326 326 326 325 325 328 330 331 330 329 328 328 329 330 331 331 329 326 325 326 326 325 323 323 323 325 326 328 331 332 333
319 320 320 320 321 321 321 321 321 320 320 322 326 327 326 326 326 325 324 324 324 324 324 323 323 323 322 323 323 323 324 324 324 324 324 324 324 324 324 325 325 326 326 326 326 326 325 325 326 329 330 330 330 330 328 327 327 328 329 330 329 327 326 326 326 324 323 324 324 324 325 326 327 328
320 319 320 320 321 321 321 321 320 320 320 322 325 327 326 326 326 325 325 324 324 324 323 323 323 323 322 323 323 323 324 324 324 324 323 323 323 323 323 324 325 325 325 325 326 326 325 324 325 326 328 329 329 329 329 328 327 327 327 328 330 329 327 326 326 325 324 324 324 324 323 323 323 324
321 320 322 322 321 321 321 321 320 320 320 320 322 323 324 325 325 325 325 324 324 323 323 323 322 323 323 322 322 322 322 322 323 322 322 321 321 321 322 323 324 325 325 325 326 326 326 325 324 324 326 328 329 329 328 328 327 327 326 326 329 331 329 327 325 325 325 324 324 324 324 323 322 322
323 322 323 324 322 321 321 321 321 321 320 320 321 321 321 322 323 325 325 324 324 324 323 322 323 323 322 322 322 321 321 321 322 322 321 322 321 321 321 322 323 324 324 324 325 326 326 327 325 324 325 327 328 328 328 328 327 326 326 326 326 329 331 330 327 325 325 325 324 324 325 325 324 322
323 323 324 324 322 320 321 321 321 321 321 320 320 320 320 320 321 323 323 323 323 324 323 322 322 322 322 322 322 322 322 322 322 322 322 321 322 322 322 322 323 323 323 323 324 325 325 326 326 326 325 325 327 327 327 328 327 327 327 327 327 328 332 333 329 327 326 325 325 325 325 325 325 324
322 323 324 324 322 320 320 321 321 321 321 320 320 321 321 321 321 322 322 322 323 323 323 322 322 323 322 323 322 322 322 323 323 323 322 321 322 322 323 323 323 323 324 323 323 324 325 326 326 326 326 326 325 326 326 326 327 328 328 328 329 330 332 334 332 329 327 326 326 326 325 325 326 325
322 323 324 323 321 320 320 322 322 321 321 320 321 322 322 322 322 322 323 323 323 323 323 323 323 323 323 323 323 322 323 323 324 323 323 322 322 323 323 323 324 323 324 324 324 325 326 326 326 326 326 326 326 325 325 324 325 327 327 328 329 328 328 331 332 330 328 327 326 326 327 327 326 326
322 323 324 322 320 320 321 322 322 321 321 320 321 322 322 322 323 323 323 323 323 323 322 322 323 323 323 323 322 323 323 324 324 324 323 323 323 322 323 323 324 323 323 324 325 325 326 326 326 326 326 327 326 326 326 325 324 325 324 325 326 325 326 329 330 329 330 329 327 327 327 327 327 327
320 323 322 320 319 320 322 322 322 321 321 321 321 322 323 323 323 323 323 323 323 323 323 323 323 323 324 323 323 324 324 325 324 324 323 323 323 322 323 323 323 323 323 324 324 325 325 326 326 327 327 326 326 326 327 327 326 326 325 326 325 325 327 329 329 329 330 331 329 328 327 327 328 327
320 321 320 318 320 322 322 322 321 321 321 321 321 322 323 323 323 323 324 323 323 323 323 324 323 323 324 323 323 324 324 324 324 323 323 323 323 323 323 323 323 323 323 323 324 324 324 325 326 327 326 326 326 326 326 326 327 328 328 328 327 327 327 328 329 330 331 331 330 328 327 327 328 328
318 318 318 319 322 322 322 322 322 321 321 320 320 321 322 323 322 323 324 324 323 323 323 323 323 323 324 324 323 324 324 324 324 324 323 323 323 323 323 323 324 323 323 323 323 323 324 324 324 326 326 325 325 326 325 324 325 327 328 329 329 328 328 330 331 331 332 331 330 328 327 328 328 328
316 318 320 322 323 322 322 322 321 322 321 320 320 321 321 322 322 322 323 324 324 324 323 324 324 324 324 324 324 324 324 323 323 323 323 323 323 323 322 323 323 323 322 323 323 323 324 324 324 325 326 326 326 326 326 324 324 326 328 329 329 329 329 330 331 331 331 331 330 329 328 328 328 327
318 320 322 323 323 323 322 322 322 322 322 321 321 320 321 321 322 322 322 323 324 324 323 324 324 323 323 323 323 323 323 323 323 322 322 322 322 322 322 322 322 322 322 323 323 322 323 324 324 325 326 326 326 326 326 325 325 326 327 327 327 328 329 329 328 330 331 331 330 329 328 328 328 328
321 322 323 323 323 323 323 322 323 322 322 322 322 321 320 320 320 321 321 322 324 324 324 324 323 323 323 322 322 323 322 322 322 322 321 321 321 321 322 321 321 322 322 322 323 322 322 323 324 324 325 325 326 326 325 325 325 326 326 326 326 326 327 327 327 328 329 329 329 329 329 328 328 328
322 322 323 324 323 323 323 323 323 323 322 322 322 322 321 319 319 321 321 321 323 324 323 323 322 322 322 322 322 322 322 322 322 321 320 320 320 321 322 321 321 322 322 322 323 322 322 322 323 323 324 325 325 326 325 325 325 325 325 325 325 325 325 325 326 326 326 327 327 327 326 326 326 326
322 322 323 323 323 324 324 323 323 323 322 322 322 322 321 320 320 320 321 321 322 323 322 322 322 322 321 321 322 322 322 321 321 320 319 319 319 320 321 321 322 322 322 323 323 322 322 323 323 323 324 325 326 326 325 325 324 324 325 325 325 324 324 324 324 325 325 326 325 325 325 325 325 325
322 322 323 323 323 323 323 323 323 322 322 322 321 321 321 321 320 320 320 321 321 322 322 322 322 322 321 321 321 322 321 321 320 320 320 319 320 320 320 320 321 322 322 323 323 322 323 323 324 324 324 325 326 326 325 325 324 324 324 325 325 324 323 323 323 323 324 324 325 325 325 325 325 325
321 322 323 324 323 322 322 322 323 322 321 321 321 321 321 321 320 319 320 320 320 321 321 321 321 322 321 320 321 321 321 321 320 320 320 319 320 320 321 320 320 321 322 323 323 323 324 324 324 324 324 324 325 326 325 324 324 324 324 324 324 323 323 322 322 321 322 322 324 325 325 325 325 324
320 322 323 323 322 322 322 322 323 323 321 321 321 321 321 321 321 319 319 320 320 320 320 320 321 322 321 320 320 321 321 320 320 320 319 319 319 320 321 321 320 320 321 322 322 323 324 324 324 325 324 324 324 324 323 322 322 322 323 323 322 321 321 321 322 322 321 322 323 323 323 323 323 323
321 322 323 322 322 322 322 323 323 323 322 321 321 321 321 321 321 319 318 318 319 319 320 321 321 321 321 320 320 320 320 320 320 319 319 319 319 319 320 321 321 320 320 321 321 322 323 324 324 324 323 323 323 322 322 321 320 320 321 321 321 320 320 321 321 322 322 322 322 322 322 322 322 322
322 323 323 322 322 322 322 322 323 322 322 321 321 321 321 321 320 319 318 318 318 318 320 320 320 321 321 320 320 320 320 320 320 319 319 319 319 319 320 321 321 320 320 320 321 322 322 322 322 322 322 322 322 322 321 321 321 320 321 321 321 321 321 322 322 323 323 323 323 322 322 323 323 323
323 324 324 323 322 323 323 323 322 321 321 321 321 321 321 320 320 319 319 318 318 318 318 319 320 321 320 320 320 321 321 321 321 320 320 319 318 318 319 320 321 321 320 320 321 321 321 321 321 322 322 322 322 322 321 321 321 321 320 321 321 321 322 322 322 322 322 323 323 322 323 323 324 324
323 324 324 324 323 323 323 323 322 321 321 320 320 320 320 320 320 320 320 319 318 317 317 318 319 320 320 320 320 321 321 322 321 321 320 319 318 318 319 320 320 320 320 320 320 320 320 321 321 320 321 322 322 321 321 320 320 320 320 320 321 321 321 321 321 321 321 322 322 323 323 324 324 324
322 323 323 323 323 323 324 324 323 322 321 320 319 320 319 319 320 320 320 319 318 317 317 317 318 319 320 320 320 320 321 321 321 320 320 319 318 318 318 319 319 319 319 320 320 320 319 320 320 320 319 320 320 320 320 319 319 320 320 319 320 320 320 320 320 320 320 321 321 322 322 323 323 323
323 323 323 323 323 323 323 324 324 323 321 319 320 321 320 318 320 321 320 320 319 317 316 316 317 318 319 319 319 320 321 321 320 320 320 319 318 318 318 319 319 319 319 319 319 319 319 319 319 319 319 318 318 318 318 318 318 319 319 319 319 318 318 319 319 320 320 321 321 321 322 323 322 323
325 325 324 323 323 323 323 323 324 324 322 319 320 321 320 319 320 320 321 320 319 317 317 317 316 317 318 318 319 320 320 319 320 320 320 320 319 318 318 318 319 319 320 320 319 319 319 319 319 319 319 319 318 318 318 318 318 318 318 318 318 318 318 319 320 321 321 321 321 321 322 322 322 322
324 324 324 324 324 323 323 324 324 325 324 320 319 320 320 319 320 320 321 320 319 318 317 316 316 317 317 317 318 319 319 318 319 319 318 318 319 318 317 317 318 318 319 320 319 319 319 319 319 319 319 320 319 319 319 319 319 319 319 319 319 318 318 319 320 320 320 321 321 322 322 322 322 322
323 324 324 324 323 323 323 323 324 325 324 321 319 320 321 320 320 320 321 320 319 318 317 316 316 316 317 317 318 319 319 318 318 318 317 317 318 318 317 317 317 317 317 318 319 319 319 319 319 319 319 320 319 320 319 319 319 319 319 319 319 319 319 319 319 319 319 320 320 321 321 322 322 322
326 325 324 323 323 322 322 323 324 325 325 321 318 319 321 321 320 321 320 320 320 319 318 317 317 316 316 317 318 319 319 319 318 317 317 317 318 317 317 317 316 316 316 317 318 318 319 319 319 319 319 319 319 319 319 319 319 320 319 319 319 319 319 318 318 318 318 318 319 319 320 321 322 322
328 327 326 325 324 323 323 323 324 325 324 320 318 319 321 321 321 321 321 321 320 319 318 318 317 316 316 317 318 318 319 319 317 316 317 317 317 317 316 316 316 315 315 316 317 318 318 318 318 318 318 318 318 318 319 319 320 320 319 319 319 318 318 318 318 318 319 319 319 320 320 321 321 322
330 329 328 327 326 325 324 323 323 324 323 319 317 319 321 321 321 321 321 321 320 319 318 318 318 317 317 317 318 318 317 317 316 316 317 317 317 316 316 315 314 314 315 316 317 318 318 318 318 318 318 317 317 318 318 318 319 319 319 318 318 318 318 319 319 319 319 319 319 320 321 321 322 322
329 329 329 328 327 327 325 323 322 322 321 318 317 319 321 322 321 321 321 321 320 319 318 318 318 317 317 317 317 317 316 316 317 317 317 317 316 316 316 315 315 315 316 316 317 318 318 318 318 318 318 318 318 318 318 318 318 318 318 318 318 318 319 319 319 319 319 320 320 320 321 321 322 322
Wind_Speed
7 6 3 3 1 1 4 3 3 7 9 7 4 5 5 7 7 5 4 6 8 7 7 7 5 5 6 6 3 3 2 2 1 4 7 6 6 7 8 9 8 7 5 2 6 12 20 27 29 28 28 28 30 31 31 31 31 31 30 29 29 27 26 27 26 27 28 28 28 28 28 28 29 28
7 5 2 3 3 3 4 4 5 8 9 7 5 5 5 5 6 5 1 5 7 4 4 6 4 2 4 5 5 6 8 7 5 5 5 3 2 4 6 6 5 4 5 4 4 5 9 17 24 27 29 29 29 30 31 31 31 32 31 31 31 30 28 28 28 28 28 28 28 28 28 28 29 29
7 5 3 3 3 4 5 4 6 8 7 7 7 6 5 3 4 4 1 5 5 3 2 4 3 1 3 1 2 3 5 5 4 3 2 0 1 1 2 1 1 1 2 3 4 6 5 6 11 17 23 26 29 29 30 30 31 32 32 31 30 31 30 31 30 30 29 28 27 27 28 29 29 30
8 8 5 5 6 6 6 6 7 9 8 8 7 6 5 3 1 2 2 3 3 1 1 2 1 2 5 6 5 5 4 4 2 1 1 1 2 2 2 3 4 4 3 3 2 4 6 7 7 8 11 15 21 26 29 29 30 31 32 32 32 31 32 33 32 31 30 29 28 27 28 29 30 31
7 6 5 6 8 9 9 9 10 10 10 9 8 7 6 5 4 3 4 4 4 5 5 6 6 6 8 9 10 10 10 11 10 8 6 6 5 6 5 5 6 7 8 7 6 5 5 8 8 8 7 6 9 14 19 24 30 32 32 32 33 33 33 32 31 31 31 30 30 31 30 30 31 31
7 6 6 6 8 9 10 10 10 10 11 11 11 10 9 8 8 7 8 9 10 12 12 12 12 11 12 12 13 14 14 14 14 13 12 12 11 11 10 10 10 11 11 11 11 9 8 8 9 9 7 6 7 6 7 12 21 28 32 33 32 33 32 31 30 31 32 33 33 34 33 33 33 33
9 8 8 8 10 11 9 8 8 8 9 10 10 11 10 10 9 9 10 10 12 14 14 14 14 13 13 14 14 15 16 16 16 16 16 16 15 15 15 15 15 15 16 16 15 14 12 10 10 10 8 8 9 7 5 5 7 13 22 25 25 27 28 30 31 32 33 35 36 36 36 35 35 36
9 9 9 10 12 11 9 9 10 11 11 11 11 11 11 10 9 9 9 9 10 12 13 12 11 11 11 12 13 14 14 15 16 17 17 16 15 15 15 15 16 17 18 20 20 19 17 13 11 11 10 10 10 7 7 7 6 7 10 13 14 17 20 22 26 29 32 35 36 38 38 38 38 37
9 10 12 13 13 11 9 9 11 12 12 12 11 11 10 10 9 8 7 8 10 11 12 10 8 8 8 8 9 11 11 11 11 12 15 15 13 13 14 14 13 14 15 18 20 21 21 19 15 14 13 12 11 9 10 11 10 10 10 11 13 13 13 13 16 21 27 32 35 37 39 39 39 38
11 10 12 13 13 11 11 11 13 14 14 12 10 8 8 8 8 8 7 8 9 9 10 10 7 7 7 7 8 9 9 8 8 7 9 11 10 10 12 13 13 13 13 14 18 20 20 21 19 17 15 14 12 11 11 12 11 11 11 11 12 11 10 10 10 12 15 21 27 32 35 36 36 37
12 12 12 12 12 13 13 14 15 16 16 14 11 9 9 8 7 7 7 7 8 8 8 9 8 7 7 8 8 9 9 9 9 8 7 7 7 6 7 9 10 11 12 12 14 15 16 18 19 18 16 14 12 11 11 13 13 12 12 12 12 10 9 8 8 8 8 10 14 19 23 26 29 31
11 11 12 12 13 13 13 13 15 17 16 13 11 11 11 10 8 6 6 7 7 7 7 8 8 8 8 8 9 9 9 8 8 8 7 7 6 5 5 6 7 8 10 11 11 10 12 15 16 16 15 14 11 10 11 13 13 13 13 15 15 13 10 8 8 7 6 6 8 10 12 14 17 19
11 10 12 13 13 12 12 13 15 16 13 10 10 11 10 10 9 8 7 7 7 7 7 8 8 8 8 9 9 9 8 8 8 7 8 8 8 6 5 5 6 7 9 11 11 9 9 12 14 14 15 14 12 12 12 11 12 13 14 16 16 16 13 10 9 8 6 5 5 6 7 7 8 9
11 9 11 13 13 12 13 15 17 15 10 7 8 10 9 9 9 8 8 8 7 7 8 7 7 6 7 8 8 8 7 8 8 9 9 9 9 8 6 4 5 7 8 9 11 10 9 10 11 13 15 15 13 13 13 12 11 12 14 15 17 17 16 14 12 10 8 7 6 5 6 5 5 6
12 12 14 15 15 15 16 17 16 15 11 6 6 7 8 8 9 8 8 8 7 7 7 7 7 6 6 6 7 8 8 8 8 10 11 11 11 10 7 5 4 5 7 8 9 11 11 11 11 12 14 15 14 13 14 14 14 15 16 16 17 18 18 18 16 13 11 10 8 7 6 5 5 5
13 14 15 17 16 16 18 18 15 15 14 9 6 6 5 5 7 7 7 7 7 7 7 7 7 8 7 7 8 9 9 8 9 10 10 11 11 11 10 8 5 5 6 7 8 9 11 13 13 13 13 15 17 17 17 17 18 18 18 19 19 20 20 20 19 17 14 13 11 9 7 6 5 4
13 14 16 17 17 17 18 17 15 16 15 11 9 7 5 4 5 5 5 7 8 8 8 8 7 8 9 8 7 7 8 8 9 9 9 9 9 9 10 10 7 6 7 7 7 8 9 11 14 15 15 15 16 17 18 19 20 20 21 21 20 21 22 22 22 21 19 16 14 11 9 7 5 4
12 13 15 16 17 18 18 16 15 15 14 11 10 9 7 4 3 3 4 6 7 7 9 9 8 7 8 7 6 7 8 8 8 8 8 8 7 7 8 8 7 7 8 8 7 7 8 9 12 15 17 17 16 15 15 16 16 18 20 20 20 21 23 23 22 23 22 19 17 15 12 9 7 6
11 12 13 15 16 18 18 16 15 15 13 11 9 9 9 8 6 5 5 6 7 8 8 8 7 7 7 7 7 7 8 8 8 7 7 7 6 5 5 6 7 7 7 7 7 7 7 8 10 12 14 16 17 16 15 14 13 14 15 16 16 18 20 21 21 22 23 21 19 17 15 13 10 8
10 10 11 14 16 17 16 14 14 15 13 9 8 8 9 8 7 6 7 8 8 8 7 7 7 7 7 6 6 7 7 7 6 6 6 6 5 5 4 5 6 7 7 7 7 7 6 7 8 10 11 13 15 16 16 16 15 14 14 12 11 13 18 20 21 22 23 23 21 19 17 15 13 11
8 8 11 14 16 16 14 13 14 14 11 7 6 7 8 7 6 6 7 8 7 7 7 7 7 7 6 5 6 6 7 6 4 5 6 5 5 5 5 5 5 6 6 7 7 7 6 6 7 7 8 10 13 14 15 16 17 17 16 13 13 15 19 21 21 22 23 23 22 21 19 17 16 14
7 8 13 15 14 13 12 12 14 14 9 6 6 7 8 7 7 8 8 7 6 6 7 7 7 6 5 5 5 5 6 6 5 5 5 5 5 5 4 4 5 5 6 6 7 7 7 7 7 7 7 8 10 12 13 13 14 16 17 16 15 17 19 20 20 21 22 22 22 21 20 19 18 17
7 9 12 13 12 11 11 11 14 14 10 6 6 7 8 8 9 9 9 9 8 7 6 6 6 6 6 6 5 4 5 6 5 5 4 4 5 5 4 3 4 5 6 6 6 7 7 8 8 8 8 7 6 8 10 10 10 12 14 16 17 18 20 21 22 22 22 22 22 22 21 20 19 18
8 9 10 10 10 10 10 11 13 15 14 9 6 6 7 9 10 10 9 10 9 8 7 7 7 7 7 6 5 5 5 5 6 6 5 5 5 4 4 3 3 4 4 5 6 7 7 8 10 10 10 7 5 5 7 8 9 10 11 14 16 18 21 22 23 23 22 21 22 21 21 20 20 19
7 7 8 9 10 11 11 12 14 16 16 14 10 8 7 8 10 10 9 9 9 8 8 7 7 7 6 6 6 5 5 5 6 6 7 6 5 5 5 5 5 4 4 4 5 5 6 8 10 11 10 8 7 9 7 7 8 9 10 12 13 16 20 21 21 22 23 22 22 22 22 22 21 20
5 7 7 9 11 12 12 13 15 16 16 17 15 13 10 8 8 10 9 8 7 7 7 6 6 6 6 6 6 6 6 6 6 7 8 7 6 5 5 5 5 5 4 3 3 3 4 6 8 10 10 9 10 11 9 7 8 9 10 11 10 12 15 15 15 19 22 22 22 22 22 22 21 20
7 7 7 8 9 11 12 13 14 15 15 17 17 17 15 12 9 9 9 7 6 7 6 6 7 7 7 8 8 8 7 7 7 8 9 9 7 5 4 4 5 4 3 2 2 3 4 5 6 8 9 11 12 13 11 8 9 9 10 11 11 11 12 11 12 16 18 18 18 19 19 19 19 20
7 6 5 6 6 7 9 10 11 13 15 17 18 18 18 15 11 9 8 6 5 6 7 7 8 9 9 8 8 8 8 7 7 9 11 11 9 6 4 4 4 4 4 4 4 3 3 5 6 7 9 11 13 14 12 9 9 9 9 9 9 10 11 11 12 13 13 14 15 16 16 17 18 19
5 4 4 5 6 6 7 8 9 11 13 16 17 17 18 17 12 8 7 6 5 5 7 7 8 10 10 8 7 6 6 6 8 10 12 13 11 9 6 5 4 3 3 4 4 1 2 3 5 6 9 11 13 12 10 9 10 9 8 8 7 8 9 11 12 13 13 14 14 15 16 17 18 18
4 3 3 5 6 5 6 7 8 10 12 14 15 16 17 18 15 9 7 6 5 5 6 7 8 10 10 8 6 6 6 8 10 11 12 13 13 12 9 6 5 4 2 3 4 4 3 3 5 5 7 9 10 10 9 9 10 10 9 8 8 8 9 10 11 11 12 14 14 15 16 17 17 18
3 3 2 3 5 5 6 7 8 11 13 13 13 14 16 17 17 11 8 7 7 5 5 6 7 8 8 7 5 5 7 8 9 11 12 12 12 12 10 7 5 3 2 3 6 7 5 3 5 5 6 7 8 8 9 9 9 10 11 10 10 9 8 8 9 10 11 11 11 12 14 15 16 18
3 2 1 3 4 5 6 7 8 12 15 14 13 14 14 15 17 14 8 7 7 6 5 6 6 6 7 6 3 3 5 6 7 10 11 12 11 10 8 7 6 5 3 4 7 7 5 3 4 4 4 5 5 5 6 6 7 9 11 12 13 12 10 8 8 8 9 10 9 9 11 12 13 15
2 1 1 3 4 5 7 9 9 12 14 14 13 14 14 16 18 17 11 7 6 5 5 6 5 4 6 6 3 1 2 4 6 8 10 11 11 9 6 5 7 6 4 4 6 6 4 4 5 3 1 1 2 2 3 3 4 5 6 8 9 9 10 8 7 7 7 8 9 9 9 10 10 11
1 1 3 4 5 6 7 10 11 13 13 12 12 13 15 18 18 16 14 10 5 4 5 7 6 4 5 6 2 0 2 4 6 7 8 10 11 9 5 4 5 6 6 5 6 6 4 3 2 2 2 1 2 3 3 3 4 3 3 4 6 7 8 7 7 8 9 9 9 10 10 11 11 10
2 4 5 6 6 6 7 11 14 14 12 12 12 12 15 18 16 14 14 13 8 4 5 6 6 6 6 6 3 1 3 5 5 6 7 8 10 9 6 4 3 5 6 5 5 5 4 4 4 5 5 4 5 5 4 4 5 5 5 6 7 7 8 8 9 9 9 8 9 10 12 12 13 13
3 5 6 7 7 6 8 12 15 14 12 12 12 12 14 15 14 12 14 15 13 8 5 5 5 7 6 4 3 3 4 4 3 4 6 8 10 10 8 6 3 2 2 2 3 3 2 2 2 2 3 4 5 6 6 6 6 7 7 7 7 8 9 10 9 7 6 6 6 8 11 12 12 13
2 4 6 7 7 7 9 12 14 15 14 13 11 12 13 12 11 12 13 13 14 13 7 4 5 6 5 4 4 4 4 4 4 4 6 7 8 8 8 7 5 3 3 2 1 0 0 1 0 0 2 3 4 6 7 7 8 9 9 9 8 8 9 9 7 5 6 6 6 6 7 8 8 9
2 4 5 7 7 7 9 12 14 15 15 13 11 11 12 11 10 11 13 13 13 12 8 4 5 6 6 6 5 4 3 4 5 5 5 6 7 7 8 7 5 5 5 4 4 3 2 2 2 1 2 3 5 6 7 7 7 8 8 8 7 7 7 7 6 5 6 7 7 6 6 7 7 9
4 5 6 6 8 9 10 11 12 14 16 13 9 8 10 11 11 12 13 13 13 11 8 5 3 5 6 6 6 4 3 5 7 6 4 5 5 7 8 8 6 5 5 4 4 5 4 2 1 1 1 2 2 4 4 3 3 4 5 6 5 6 6 6 6 5 6 7 7 6 7 7 7 9
6 6 6 7 9 10 10 11 11 13 16 14 8 6 8 10 11 13 13 14 15 12 8 6 4 4 5 5 5 4 4 6 7 6 5 5 5 6 8 8 6 5 4 3 2 3 2 1 2 2 2 2 2 1 2 2 2 3 4 4 4 4 5 5 4 3 3 4 5 7 9 8 7 9
6 7 7 8 9 11 11 11 11 13 16 15 9 5 7 9 11 13 13 14 16 14 10 6 4 3 4 4 5 5 5 5 5 6 7 7 6 6 8 9 7 4 3 2 1 1 2 4 5 5 4 3 2 2 2 3 3 3 3 3 3 4 4 4 3 2 1 2 4 7 9 9 8 8
7 8 8 8 10 12 12 12 11 13 16 16 10 7 7 8 10 11 12 13 15 16 12 7 4 3 5 5 4 6 6 5 4 6 8 7 6 6 8 10 10 7 4 2 1 2 3 4 5 5 5 3 3 2 2 2 3 3 3 3 4 5 5 5 4 3 1 2 4 6 7 7 6 5
8 9 9 9 10 13 13 12 11 13 15 15 11 8 8 9 10 11 11 11 13 15 13 8 5 3 4 6 5 5 5 4 4 5 6 7 7 8 8 9 10 8 4 3 3 3 4 4 5 5 4 3 3 3 3 3 4 4 4 4 4 4 4 3 3 3 3 3 4 5 6 6 5 4
10 10 10 10 11 13 14 13 12 13 14 13 10 8 8 9 10 10 10 11 11 13 14 10 5 3 3 5 5 5 4 4 3 3 4 4 5 5 4 4 3 2 1 2 3 5 6 6 6 7 6 5 5 4 3 4 4 4 4 4 4 4 4 3 3 3 4 4 5 6 6 5 5 5
13 13 12 11 11 13 14 13 12 12 12 12 10 8 8 9 11 10 9 10 10 11 14 12 6 3 3 3 4 4 3 3 2 1 1 1 1 2 2 1 1 2 3 4 5 7 8 8 8 8 8 8 7 7 6 5 4 4 4 4 4 4 4 4 4 4 4 5 5 5 5 5 6 6
Wind_Direction
12 12 48 75 81 358 348 340 310 316 329 337 318 296 312 319 314 319 1 46 66 64 70 80 60 28 17 20 70 128 99 67 67 80 80 73 64 60 60 59 52 35 23 308 247 242 235 232 231 228 227 225 224 223 222 221 220 220 219 218 217 215 214 216 218 220 224 224 225 224 224 225 226 225
356 6 53 51 51 32 346 325 314 320 330 348 6 5 344 313 302 303 329 93 87 76 73 82 81 13 15 46 81 85 73 67 62 77 87 84 82 91 91 79 67 39 17 4 338 302 249 235 235 233 231 230 227 225 224 222 221 221 221 220 220 219 217 218 218 217 219 221 223 224 223 224 225 225
331 328 322 325 349 9 356 335 327 336 348 359 14 26 15 332 310 326 82 128 114 96 78 73 73 280 297 333 93 76 65 66 70 92 105 28 9 118 134 140 140 73 21 355 334 321 302 263 246 240 238 235 232 229 226 224 223 223 223 222 222 223 223 221 220 220 220 220 223 224 224 224 225 225
313 308 304 314 320 325 329 329 333 345 1 7 14 30 33 35 21 355 42 108 119 80 347 340 320 269 274 275 261 259 276 298 314 277 229 268 286 278 269 265 261 255 253 257 280 297 291 285 275 260 251 243 237 236 233 230 228 226 225 224 223 224 226 225 223 223 224 224 226 227 226 227 228 228
334 320 305 312 320 320 317 314 315 322 336 346 351 358 2 3 356 333 330 330 317 314 313 305 297 285 283 286 282 277 274 275 280 277 269 263 258 260 263 267 270 269 266 262 255 256 266 270 268 265 263 255 243 240 238 235 232 230 227 225 223 223 226 227 226 226 227 228 230 232 231 230 231 231
6 354 342 336 339 341 335 324 317 319 327 332 336 344 349 348 347 339 328 322 316 315 316 312 307 299 290 288 288 288 285 282 285 287 284 277 267 259 255 255 258 261 265 266 261 254 254 254 251 248 248 247 235 220 226 237 234 230 227 225 225 226 228 230 230 228 228 229 232 234 234 234 234 233
357 351 356 6 7 4 3 3 5 2 357 353 351 353 357 355 350 345 337 330 322 318 319 318 315 311 304 296 290 287 286 285 285 287 290 287 279 272 266 261 258 255 256 260 261 256 252 251 244 234 230 238 232 205 188 214 218 216 218 220 224 225 226 230 231 229 228 228 230 232 233 235 235 235
351 358 9 13 9 5 9 18 22 17 9 4 360 355 355 354 352 348 339 333 327 319 317 319 321 321 317 308 299 292 285 280 277 279 284 286 278 270 267 266 264 261 258 258 261 258 251 249 242 229 224 235 237 211 185 187 167 159 181 190 200 209 216 223 227 226 226 226 228 229 230 231 233 235
355 2 6 8 8 10 14 15 12 8 2 355 348 343 341 338 338 339 334 327 323 318 318 322 327 327 321 315 312 306 292 280 275 275 280 283 274 259 255 258 261 265 263 262 264 260 251 247 242 228 222 230 238 220 195 194 182 166 170 175 179 189 199 207 216 222 225 227 227 228 229 230 231 233
1 1 2 6 10 11 14 12 6 4 1 354 347 345 342 334 324 319 317 317 317 319 320 322 325 327 324 317 315 317 313 304 294 285 283 285 282 266 258 259 259 261 262 262 262 257 247 244 243 235 223 222 234 228 208 203 192 172 174 179 177 181 185 189 202 216 220 223 226 228 230 232 234 235
4 3 4 5 7 7 9 6 3 1 357 352 355 2 359 350 335 316 309 309 311 315 318 317 317 320 322 319 315 319 326 321 308 301 298 291 284 277 267 264 262 257 250 249 255 252 241 237 241 239 224 213 224 228 213 207 199 183 180 180 176 179 188 194 204 209 208 210 217 224 228 231 234 237
4 3 3 3 4 5 4 359 356 354 349 345 353 2 2 1 355 339 326 320 315 316 318 318 318 317 318 320 316 316 320 318 311 308 307 301 290 286 280 267 262 253 236 233 246 252 238 228 229 229 219 211 217 219 212 211 205 193 189 188 183 185 197 211 216 216 216 207 205 213 220 226 231 236
5 5 7 8 8 4 358 355 352 349 345 343 350 354 358 1 358 351 344 335 324 322 322 319 319 318 320 319 316 314 317 320 324 322 315 308 300 298 296 275 260 251 235 230 237 246 240 228 224 221 217 217 217 210 206 211 210 201 199 198 194 192 197 209 220 225 226 213 197 197 202 208 216 222
13 18 17 16 12 5 360 357 355 354 356 358 350 346 347 353 353 350 347 342 334 332 329 325 324 322 323 322 318 316 318 319 321 320 314 309 304 299 294 275 258 252 243 236 235 238 241 237 232 226 220 218 217 212 209 213 214 210 207 206 206 205 201 203 212 221 223 214 198 189 186 182 182 187
20 23 19 15 11 5 3 1 358 2 10 9 346 338 339 343 345 346 349 349 348 344 337 331 327 325 321 318 312 309 308 308 310 312 311 308 304 300 294 276 260 254 250 245 239 237 238 239 240 237 230 224 221 220 219 220 223 224 220 215 213 213 209 205 205 210 216 216 206 198 196 186 171 173
20 20 16 11 7 4 4 2 1 7 13 13 352 328 321 326 333 342 352 354 350 343 334 327 323 320 316 311 307 306 304 302 302 303 305 305 302 299 294 284 275 265 252 242 237 235 234 236 239 241 238 231 227 226 226 226 228 230 230 225 219 214 212 209 205 202 207 218 218 207 201 200 190 184
15 13 9 5 4 6 5 2 3 7 12 14 359 335 320 310 312 325 342 345 340 332 324 322 321 316 311 310 311 310 309 310 308 303 303 304 301 298 293 285 278 272 261 247 234 229 226 228 231 234 235 231 226 225 226 227 229 232 234 233 227 219 214 212 208 203 202 209 218 216 208 204 202 198
9 5 1 360 4 7 4 1 4 8 11 14 5 353 357 0 340 330 336 336 334 325 318 320 324 318 312 313 316 313 312 314 314 313 311 309 305 299 294 290 285 275 267 260 247 231 220 218 223 226 226 225 224 222 221 222 227 231 232 230 227 221 215 212 212 210 205 203 209 215 216 214 213 212
2 357 353 355 1 5 2 359 4 10 16 20 17 16 23 24 15 0 345 342 342 334 326 330 336 331 323 320 320 320 320 321 321 320 319 314 308 304 301 297 290 279 269 265 255 235 219 215 220 222 221 223 226 226 225 224 224 228 230 227 224 221 214 212 215 215 211 205 204 207 212 215 217 218
351 348 347 351 358 2 3 3 6 12 19 21 20 28 34 28 18 6 354 349 348 344 344 349 347 338 331 325 326 329 327 324 320 315 313 311 306 305 306 295 284 278 271 266 259 245 228 222 226 226 221 221 223 227 230 229 226 228 233 235 237 230 218 214 215 215 214 211 207 203 204 207 212 217
344 345 347 351 357 2 5 6 6 10 18 20 20 33 40 35 30 27 11 356 347 346 350 352 346 340 337 334 334 336 334 331 321 311 310 310 307 303 297 284 278 275 268 263 261 254 242 235 238 239 229 223 222 222 226 229 227 227 229 231 235 232 220 216 216 214 212 213 210 205 202 202 205 211
352 350 348 352 2 7 7 6 5 8 18 23 24 34 36 30 33 35 27 17 9 1 355 350 346 345 344 344 343 345 351 354 345 328 321 319 321 317 300 277 274 272 269 267 260 254 248 239 240 244 239 233 230 224 222 224 225 226 224 221 224 223 216 214 218 214 209 209 209 207 204 203 204 207
354 350 349 357 11 16 14 13 11 14 21 23 23 29 27 24 29 30 25 22 23 19 10 6 2 359 356 357 3 6 0 358 356 349 340 336 336 332 316 288 271 263 264 263 254 251 247 234 232 236 235 234 237 233 229 223 218 221 221 216 216 215 211 211 212 210 206 204 206 206 205 205 207 207
347 353 359 12 24 27 26 24 21 23 26 24 15 16 18 19 21 21 15 14 19 21 20 21 18 13 14 17 18 13 358 356 3 359 349 347 351 350 341 325 300 280 274 267 260 257 245 229 225 228 232 229 198 185 215 225 218 215 217 217 213 204 202 207 206 203 202 201 202 204 205 206 209 209
355 15 27 34 38 38 33 30 30 30 30 27 19 8 4 7 9 7 3 3 13 21 23 24 22 22 25 26 19 11 3 4 10 4 355 353 350 343 339 330 312 302 308 305 285 268 250 235 226 219 223 223 188 174 195 223 221 212 207 215 216 199 196 203 199 194 199 201 200 204 206 208 213 213
39 54 53 47 45 39 31 28 31 31 27 26 22 12 2 356 353 352 350 349 1 16 24 26 25 24 25 19 13 11 11 16 19 11 1 356 348 334 324 317 309 301 309 330 311 267 246 241 233 220 218 219 200 193 203 211 210 212 205 204 213 205 198 198 188 187 198 202 201 205 207 208 212 213
82 78 66 56 48 38 28 24 24 24 21 19 17 11 5 359 347 338 336 336 347 4 20 25 21 19 18 15 15 16 14 15 19 10 357 351 347 340 320 310 315 312 309 330 322 265 229 227 233 225 223 222 204 194 199 198 192 204 207 202 208 211 201 193 189 192 200 205 204 208 211 211 214 216
104 99 84 64 52 38 27 18 13 14 14 12 10 9 6 2 350 331 327 334 345 356 7 14 11 9 10 13 17 16 12 15 19 10 2 360 358 351 331 312 318 325 324 328 319 279 211 212 227 222 221 227 214 197 196 197 189 196 208 206 212 222 218 209 204 203 208 214 215 217 219 221 223 226
125 112 91 60 49 40 25 12 0 359 4 5 5 6 6 5 357 335 324 335 343 349 359 3 360 358 1 7 14 12 9 18 22 17 16 18 18 12 357 329 309 309 330 342 336 313 168 185 214 207 200 212 219 213 209 207 200 201 212 213 214 227 235 233 225 216 214 217 222 224 226 229 230 232
133 107 82 50 38 28 16 6 354 352 355 358 358 359 1 5 3 342 320 331 338 335 347 353 350 349 353 0 8 12 19 25 26 26 25 23 21 18 13 352 312 295 319 32 44 57 93 144 171 178 182 196 213 217 209 205 206 209 214 220 222 226 234 242 242 235 228 224 226 229 230 232 235 236
125 104 71 29 16 6 357 351 348 349 347 345 350 352 353 1 4 351 321 320 331 328 326 333 335 340 348 355 2 14 23 25 24 25 22 16 15 17 15 7 345 321 343 68 71 63 61 103 145 159 175 186 195 198 196 205 221 223 218 223 231 237 241 246 251 254 248 238 236 239 239 238 238 238
124 111 52 9 353 341 340 338 340 345 341 335 340 346 347 354 1 358 334 308 312 315 311 316 322 331 341 346 354 22 26 21 19 20 15 9 9 11 10 17 26 27 41 84 87 74 59 85 126 142 168 177 181 193 205 217 226 225 227 234 239 243 248 253 257 260 255 245 241 245 247 245 244 245
125 102 14 352 335 329 338 340 338 338 335 330 332 337 340 345 350 351 346 323 302 299 306 313 317 327 335 333 328 10 15 7 13 13 7 3 4 2 0 21 43 54 66 92 102 97 92 107 117 114 114 191 215 248 275 262 220 209 228 244 244 241 243 248 255 257 253 248 244 242 242 243 245 250
205 295 315 323 323 330 337 338 335 330 325 323 324 327 335 341 343 347 355 353 323 283 295 313 316 316 323 324 318 211 318 333 357 4 360 1 3 359 353 13 52 77 89 102 117 126 143 166 193 241 240 214 246 273 289 274 243 215 218 234 235 234 235 238 246 249 246 244 242 238 235 236 239 241
260 287 303 308 309 318 329 334 335 330 322 321 322 322 329 338 342 348 359 3 352 294 272 289 301 302 312 331 359 17 279 291 327 353 354 360 2 358 359 19 53 77 85 96 113 127 153 180 211 236 226 211 224 237 236 235 233 226 223 229 233 236 238 238 240 243 243 244 243 238 234 233 235 238
268 282 297 305 304 304 319 331 336 332 325 323 325 324 327 334 339 345 354 3 4 345 297 262 275 292 300 317 340 326 284 274 304 342 348 359 3 358 359 13 31 43 46 71 99 106 124 147 156 209 233 232 231 227 222 221 223 224 229 237 239 240 246 249 244 236 235 241 244 237 231 230 234 238
277 281 292 308 312 302 306 321 330 332 330 329 330 332 334 337 344 348 350 357 2 356 335 271 253 270 278 279 290 299 290 282 302 323 330 347 359 356 350 354 357 344 329 311 271 216 327 309 28 120 237 255 258 248 238 232 227 222 226 235 239 240 248 254 248 235 233 238 241 232 221 225 237 236
308 294 292 305 310 301 300 309 319 329 335 334 329 332 339 347 354 354 349 349 355 355 346 311 255 255 267 275 277 280 285 294 303 305 309 330 349 348 337 337 330 313 305 288 264 260 267 277 298 299 250 261 278 279 264 244 227 215 212 220 227 232 243 246 239 232 232 233 240 236 212 210 228 228
305 302 300 306 310 308 308 308 310 322 334 336 329 330 342 353 359 356 351 350 352 351 346 331 283 253 260 269 266 264 281 295 297 297 301 320 338 334 325 325 324 315 311 293 257 257 265 273 280 263 229 225 269 283 271 243 215 200 192 194 203 215 230 231 224 226 229 227 236 236 209 197 209 215
301 305 308 314 317 319 319 314 306 313 325 331 329 328 338 347 354 354 351 352 354 354 343 323 300 265 255 260 258 260 275 282 285 300 323 328 327 322 316 317 324 327 327 325 294 264 254 161 121 122 130 135 149 205 208 183 200 201 182 177 191 204 211 208 200 215 231 221 219 214 200 191 195 202
311 316 317 316 319 324 326 322 310 307 319 326 321 309 322 334 343 347 347 349 355 357 347 324 308 269 232 231 243 252 254 260 276 304 320 315 310 315 317 316 320 328 333 337 355 103 125 124 120 113 105 109 134 172 185 186 203 203 175 161 169 172 169 165 157 149 214 205 195 196 197 197 198 199
321 328 329 325 325 328 331 328 312 303 315 323 312 287 298 313 320 331 336 340 350 356 350 329 311 274 230 218 231 244 242 241 272 300 307 305 304 308 310 307 306 305 295 267 219 155 134 121 113 109 103 107 126 156 187 193 198 192 167 148 143 143 140 139 138 136 164 198 195 194 198 201 199 196
317 324 328 329 331 331 331 328 312 303 314 323 308 278 280 293 300 312 320 324 340 355 352 333 311 289 239 214 215 236 248 263 291 299 298 299 299 299 298 297 296 292 271 216 173 145 129 115 104 105 107 114 124 133 150 165 174 176 168 156 150 148 149 156 162 160 172 196 199 188 183 186 184 185
305 314 318 322 328 329 328 323 312 306 315 320 304 272 270 287 296 304 308 308 326 351 355 340 310 287 244 219 222 241 259 272 289 293 289 291 296 303 309 308 302 294 174 156 146 134 129 125 120 118 113 104 102 112 134 154 163 165 163 160 160 161 164 176 186 177 172 182 185 175 171 176 186 198
299 304 308 313 321 326 327 323 316 310 312 313 300 271 266 286 297 299 298 299 311 341 355 348 317 263 229 228 232 227 212 206 209 190 176 197 305 339 350 1 112 129 129 139 145 142 139 137 132 123 113 105 108 118 125 131 139 144 146 151 155 155 157 167 179 180 175 176 175 170 170 180 189 198